Regional Weather Roundup
Issued by NWS State College, PA

Home | Current Version | Previous Version | Text Only | Print | Product List | Glossary On
Versions: 1 2 3 4 5 6 7 8 9 10 11 12 13 14 15 16 17 18 19 20 21 22 23 24 25 26 27 28 29 30 31 32 33 34 35 36 37 38 39 40 41 42 43 44 45 46 47 48 49 50
947
ASUS41 KCTP 291803
RWRCTP

REGIONAL WEATHER ROUNDUP
NATIONAL WEATHER SERVICE STATE COLLEGE PA
200 PM EDT FRI APR 29 2016

Note: "fair" indicates few or no clouds below 12,000 feet with no
significant weather and/or obstructions to visibility.

* = STATION THAT DOES NOT REPORT PRECIPITATION /E.G. RAIN...SNOW...ETC/
    THUNDER OR FOG.

PAZ002>004-007>009-013>016-020>023-029>032-291900-
WESTERN PENNSYLVANIA

CITY           SKY/WX    TMP DP  RH WIND       PRES   REMARKS
ERIE           LGT RAIN  46  39  76 NE8       30.02F
MEADVILLE      CLOUDY    46  44  93 NW3       29.99F
FRANKLIN*      CLOUDY    46  43  87 NW3       30.00F
NEW CASTLE     CLOUDY    50  48  93 W5        30.00F FOG
BEAVER COUNTY  CLOUDY    50  46  87 NW6       29.99F FOG
BUTLER*        CLOUDY    50  46  87 W5        30.01S
PITTSBURGH INT CLOUDY    55  48  77 NW8       29.98S
PITTSBURGH     CLOUDY    57  49  74 NW5       29.97F
INDIANA*       FOG       52  52 100 W6        30.00F VSB 3/4
LATROBE        CLOUDY    55  54  94 W9        29.98F
WASHINGTON CO* CLOUDY    57  48  72 W8        29.98S
$$

PAZ004>006-010>012-017>019-024>028-033>037-041-042-045-046-049>053-291900-
CENTRAL PENNSYLVANIA

CITY           SKY/WX    TMP DP  RH WIND       PRES   REMARKS
BRADFORD       CLOUDY    44  42  93 SE6       29.99R FOG
DUBOIS         CLOUDY    46  44  93 CALM      29.99R FOG
CLEARFIELD     CLOUDY    46  44  93 SE5       30.00S FOG
JOHNSTOWN      CLOUDY    54  47  77 VRB3      29.95F
ALTOONA        CLOUDY    47  44  90 SE6       30.01F
STATE COLLEGE  CLOUDY    45  43  93 S6        30.03R FOG
WILLIAMSPORT   CLOUDY    50  37  61 E9        30.05R
SELINSGROVE    CLOUDY    49  38  65 CALM      30.07R
FT INDIANTOWN  CLOUDY    48  42  80 SE6       30.07R
CAPITAL CITY   CLOUDY    49  43  80 E9        30.07R
HARRISBURG     CLOUDY    49  43  80 S3        30.07R
YORK           CLOUDY    49  46  90 E7        30.06R
$$

PAZ038>040-043-044-047-048-054-055-060>062-067>071-291900-
EASTERN PENNSYLVANIA

CITY           SKY/WX    TMP DP  RH WIND       PRES   REMARKS
SCRANTON       CLOUDY    52  33  48 SE5       30.03S
MOUNT POCONO   LGT RAIN  47  32  56 E10       30.03F
ALLENTOWN      CLOUDY    54  30  40 E13       30.06F
QUAKERTOWN*    CLOUDY    50  36  57 SE10      30.06F
READING        CLOUDY    52  40  63 S6        30.05F
LANCASTER      CLOUDY    49  44  83 SE6       30.07R
COATESVILLE    CLOUDY    48  48 100 SE8       30.07R
POTTSTOWN      CLOUDY    51  40  65 VRB7      30.06F
BLUE BELL      CLOUDY    50  37  62 SE8       30.05F
DOYLESTOWN     CLOUDY    50  35  56 VRB3      30.06F
WILLOW GROVE   NOT AVBL
NORTH PHILA    CLOUDY    54  39  57 E8        30.08F
PHILADELPHIA   CLOUDY    53  39  59 E13       30.07F
$$




USA.gov is the U.S. government's official web portal to all federal, state and local government web resources and services.